Flag for Netherlands Weather past 2 weeks in Eindhoven, Netherlands

Now
46 °F

Cool.


Feels Like: 44 °F
Forecast: 38 / 65 °F
Wind: 5 mph from Northeast

Location: Eindhoven Airport

Current Time: Apr 20, 2015 at 3:05:58 AM

Latest Report: Apr 20, 2015 at 2:25 AM


Visibility: N/A

Pressure: 30.24 "Hg

Humidity: 62%

Dew point: 34 °F

Location of EindhovenLocation

Historic Weather in Eindhoven — Graph

°F

Eindhoven temperature yesterday

Maximum temperature yesterday: 59 °F (at 4:25 PM)
Minimum temperature yesterday: 34 °F (at 6:59 AM)
Average temperature yesterday: 47 °F

Past Weeks' High & Low Weather Summary

 TemperatureHumidityPressure
High77 °F (Apr 15, 3:55 PM)100% (Apr 5, 6:55 AM)30.63 "Hg (Apr 5, 6:55 AM)
Low30 °F (Apr 5, 5:55 AM)20% (Apr 10, 5:25 PM)29.92 "Hg (Apr 15, 6:55 PM)
Average50 °F68%30.27 "Hg
* Reported Apr 5 1:25 AM — Apr 20 1:55 AM, Eindhoven, Weather by CustomWeather, © 2015

Note: Actual official high and low records may vary slightly from our data, if they occured in-between our weather recording intervals... More about our weather records

Advertising

Eindhoven weather history for previous 24 hours

 ConditionsComfort  
Time TempWeatherWind HumidityBarometerVisibility
1:55 AM
Mon, Apr 20
43 °FQuite cool.6 mph71%30.24 "HgN/A
1:25 AM45 °FQuite cool.6 mph66%30.24 "HgN/A
12:55 AM45 °FQuite cool.7 mph66%30.24 "HgN/A
12:25 AM43 °FQuite cool.8 mph71%30.24 "HgN/A
11:55 PM
Sun, Apr 19
46 °FPassing clouds.6 mph66%30.24 "HgN/A
11:25 PM45 °FPassing clouds.7 mph71%30.24 "HgN/A
10:55 PM48 °FPassing clouds.6 mph62%30.21 "HgN/A
10:25 PM46 °FCool.9 mph66%30.21 "HgN/A
9:55 PM50 °FCool.7 mph58%30.21 "HgN/A
9:25 PM52 °FCool.7 mph54%30.21 "HgN/A
8:55 PM52 °FCool.9 mph54%30.18 "HgN/A
8:25 PM54 °FCool.9 mph51%30.18 "HgN/A
7:55 PM57 °FRefreshingly cool.13 mph44%30.18 "HgN/A
7:25 PM57 °FPassing clouds.10 mph44%30.18 "HgN/A
6:55 PM59 °FRefreshingly cool.10 mph42%30.15 "HgN/A
6:25 PM59 °FPassing clouds.10 mph42%30.15 "HgN/A
5:55 PM59 °FRefreshingly cool.8 mph39%30.15 "HgN/A
5:25 PM59 °FRefreshingly cool.6 mph42%30.15 "HgN/A
4:55 PM59 °FRefreshingly cool.7 mph42%30.15 "HgN/A
4:25 PM59 °FRefreshingly cool.3 mph42%30.15 "HgN/A
3:55 PM57 °FPassing clouds.5 mph48%30.15 "HgN/A
3:25 PM57 °FPassing clouds.6 mph44%30.15 "HgN/A
2:55 PM57 °FPartly sunny.5 mph48%30.18 "HgN/A
2:25 PM55 °FPassing clouds.5 mph51%30.18 "HgN/A
1:55 PM55 °FPassing clouds.7 mph47%30.18 "HgN/A
1:25 PM54 °FOvercast.5 mph54%30.18 "HgN/A
12:55 PM54 °FPassing clouds.5 mph58%30.18 "HgN/A
12:25 PM54 °FPassing clouds.5 mph54%30.18 "HgN/A
11:55 AM50 °FOvercast.5 mph62%30.18 "HgN/A
11:25 AM48 °FCool.7 mph66%30.18 "HgN/A
10:55 AM46 °FCool.7 mph71%30.18 "HgN/A
10:25 AM46 °FPassing clouds.7 mph71%30.21 "HgN/A
9:59 AM45 °FScattered clouds.8 mph76%30.21 "HgN/A
9:55 AM45 °FPartly sunny.7 mph71%30.21 "HgN/A
9:25 AM43 °FScattered clouds.3 mph81%30.21 "HgN/A
8:55 AM41 °FQuite cool.2 mph87%30.21 "HgN/A
8:25 AM37 °FFog.3 mph93%30.21 "Hg4 mi
7:55 AM34 °FFog.1 mph93%30.21 "Hg4 mi
7:25 AM34 °FFog.1 mph93%30.21 "Hg6 mi
6:59 AM34 °FFog.1 mph100%30.21 "Hg4 mi
6:25 AM36 °FFog.2 mph93%30.21 "Hg4 mi
5:59 AM37 °FFog.3 mph93%30.21 "Hg5 mi
5:25 AM37 °FChilly.5 mph93%30.21 "HgN/A
4:55 AM36 °FChilly.5 mph100%30.24 "HgN/A
4:25 AM36 °FClear.6 mph87%30.24 "HgN/A
3:55 AM37 °FChilly.6 mph93%30.24 "HgN/A
3:25 AM37 °FPassing clouds.7 mph87%30.24 "HgN/A
Weather by CustomWeather, © 2015

See weather overviewHow to use our weather pages